N1MJ KMRY-KSNA

Flight info

Callsign N1MJ
Flight time 1h 3m
Altitude 31000
Route BSR LIBBO TILLT RUKKI1
Aircraft C25C/M-SDE2E3FGHRWXY/LB1

Departure

Time 2026-04-21 02:04
Airport Monterey Regional Airport (KMRY)

Arrival

Time 2026-04-21 03:07
Airport John Wayne Orange County International Airport (KSNA)
Time Latitude Longitude Altitude Speed Heading
2026-04-21 01:51 36.58881 -121.85386 205 ft 0 kts 293°
2026-04-21 02:02 36.58892 -121.85391 204 ft 6 kts
2026-04-21 02:02 36.58952 -121.85405 204 ft 12 kts 276°
2026-04-21 02:02 36.58965 -121.85509 209 ft 12 kts 291°
2026-04-21 02:03 36.59008 -121.85596 202 ft 8 kts 333°
2026-04-21 02:03 36.59032 -121.85599 202 ft 6 kts
2026-04-21 02:03 36.59068 -121.85551 201 ft 11 kts 81°
2026-04-21 02:03 36.59006 -121.85344 205 ft 64 kts 112°
2026-04-21 02:04 36.58700 -121.84479 367 ft 145 kts 117°
2026-04-21 02:04 36.58330 -121.83191 1317 ft 177 kts 109°
2026-04-21 02:04 36.58322 -121.81463 2054 ft 214 kts 73°
2026-04-21 02:04 36.59295 -121.80095 3475 ft 219 kts 37°
2026-04-21 02:05 36.60747 -121.79433 4488 ft 230 kts 358°
2026-04-21 02:05 36.62292 -121.79868 5636 ft 228 kts 335°
2026-04-21 02:05 36.63792 -121.80603 6612 ft 241 kts 333°
2026-04-21 02:05 36.65464 -121.81391 7010 ft 279 kts 336°
2026-04-21 02:06 36.67366 -121.82175 7016 ft 288 kts 336°
2026-04-21 02:06 36.68992 -121.83451 7183 ft 261 kts 304°
2026-04-21 02:06 36.70003 -121.85209 8176 ft 244 kts 285°
2026-04-21 02:06 36.70085 -121.87193 9200 ft 226 kts 244°
2026-04-21 02:07 36.69138 -121.88639 10215 ft 217 kts 211°
2026-04-21 02:07 36.67811 -121.89526 11179 ft 221 kts 200°
2026-04-21 02:07 36.66208 -121.89827 11602 ft 249 kts 182°
2026-04-21 02:07 36.64468 -121.89343 12400 ft 262 kts 162°
2026-04-21 02:08 36.62808 -121.88464 13405 ft 264 kts 162°
2026-04-21 02:08 36.61114 -121.87535 14273 ft 268 kts 160°
2026-04-21 02:08 36.59367 -121.86749 15084 ft 266 kts 176°
2026-04-21 02:08 36.57518 -121.86667 15882 ft 271 kts 170°
2026-04-21 02:09 36.55857 -121.85451 16718 ft 285 kts 149°
2026-04-21 02:09 36.54261 -121.83957 17495 ft 288 kts 151°
2026-04-21 02:09 36.52603 -121.82533 18312 ft 289 kts 154°
2026-04-21 02:09 36.50879 -121.81226 19011 ft 291 kts 156°
2026-04-21 02:10 36.49131 -121.79903 19657 ft 297 kts 156°
2026-04-21 02:10 36.47368 -121.78520 20358 ft 302 kts 155°
2026-04-21 02:10 36.45576 -121.77111 21025 ft 307 kts 156°
2026-04-21 02:10 36.43758 -121.75688 21645 ft 311 kts 156°
2026-04-21 02:11 36.41902 -121.74250 22258 ft 318 kts 156°
2026-04-21 02:11 36.40014 -121.72779 22896 ft 322 kts 156°
2026-04-21 02:11 36.38131 -121.71308 23515 ft 327 kts 156°
2026-04-21 02:11 36.36189 -121.69798 24030 ft 331 kts 156°
2026-04-21 02:12 36.34238 -121.68278 24654 ft 332 kts 156°
2026-04-21 02:12 36.32270 -121.66751 25222 ft 335 kts 156°
2026-04-21 02:12 36.30286 -121.65209 25822 ft 338 kts 156°
2026-04-21 02:12 36.28284 -121.63655 26408 ft 341 kts 156°
2026-04-21 02:13 36.26259 -121.62082 26934 ft 344 kts 156°
2026-04-21 02:13 36.24223 -121.60504 27462 ft 347 kts 156°
2026-04-21 02:13 36.22165 -121.58911 27953 ft 350 kts 156°
2026-04-21 02:13 36.20096 -121.57306 28563 ft 351 kts 156°
2026-04-21 02:14 36.18032 -121.55707 29239 ft 350 kts 156°
2026-04-21 02:14 36.15968 -121.54108 29904 ft 348 kts 156°
2026-04-21 02:14 36.13913 -121.52522 30481 ft 348 kts 156°
2026-04-21 02:14 36.11860 -121.50939 30898 ft 351 kts 156°
2026-04-21 02:15 36.09751 -121.49319 30979 ft 364 kts 156°
2026-04-21 02:15 36.07560 -121.47631 30985 ft 377 kts 156°
2026-04-21 02:15 36.05329 -121.45907 30997 ft 388 kts 155°
2026-04-21 02:16 36.00637 -121.42292 31005 ft 406 kts 155°
2026-04-21 02:16 35.95807 -121.38566 31008 ft 410 kts 155°
2026-04-21 02:17 35.90953 -121.34843 31012 ft 410 kts 155°
2026-04-21 02:17 35.86101 -121.31123 31016 ft 411 kts 155°
2026-04-21 02:18 35.80951 -121.28422 31013 ft 397 kts 172°
2026-04-21 02:18 35.75570 -121.26928 31010 ft 397 kts 172°
2026-04-21 02:19 35.70363 -121.24542 31001 ft 408 kts 160°
2026-04-21 02:19 35.65512 -121.20761 31002 ft 419 kts 149°
2026-04-21 02:20 35.61006 -121.16175 30999 ft 420 kts 147°
2026-04-21 02:20 35.57277 -121.12330 31004 ft 422 kts 147°
2026-04-21 02:21 35.52774 -121.07695 31006 ft 422 kts 147°
2026-04-21 02:21 35.48257 -121.03061 31011 ft 423 kts 147°
2026-04-21 02:22 35.43763 -120.98371 31012 ft 425 kts 145°
2026-04-21 02:22 35.39321 -120.93546 31013 ft 426 kts 145°
2026-04-21 02:23 35.34865 -120.88742 31013 ft 427 kts 145°
2026-04-21 02:23 35.30406 -120.83926 31017 ft 427 kts 145°
2026-04-21 02:24 35.25970 -120.79147 31025 ft 428 kts 145°
2026-04-21 02:24 35.21496 -120.74333 31016 ft 429 kts 145°
2026-04-21 02:25 35.17001 -120.69506 31024 ft 429 kts 145°
2026-04-21 02:25 35.12512 -120.64689 31019 ft 430 kts 145°
2026-04-21 02:26 35.08011 -120.59870 31019 ft 430 kts 145°
2026-04-21 02:26 35.03426 -120.55263 31024 ft 425 kts 152°
2026-04-21 02:27 34.98496 -120.51261 31025 ft 426 kts 152°
2026-04-21 02:27 34.93557 -120.47263 31028 ft 426 kts 152°
2026-04-21 02:28 34.88615 -120.43264 31029 ft 427 kts 152°
2026-04-21 02:28 34.83663 -120.39261 31024 ft 427 kts 152°
2026-04-21 02:29 34.78707 -120.35263 31024 ft 428 kts 152°
2026-04-21 02:29 34.73746 -120.31270 31033 ft 428 kts 152°
2026-04-21 02:30 34.68782 -120.27276 31033 ft 428 kts 152°
2026-04-21 02:30 34.63831 -120.23313 31016 ft 429 kts 152°
2026-04-21 02:31 34.58840 -120.19319 31017 ft 429 kts 152°
2026-04-21 02:31 34.53851 -120.15333 31019 ft 429 kts 152°
2026-04-21 02:32 34.48858 -120.11349 31023 ft 430 kts 152°
2026-04-21 02:32 34.43852 -120.07364 31022 ft 430 kts 152°
2026-04-21 02:33 34.38848 -120.03383 31030 ft 430 kts 152°
2026-04-21 02:33 34.33849 -119.99411 31027 ft 430 kts 152°
2026-04-21 02:34 34.28842 -119.95441 30496 ft 428 kts 152°
2026-04-21 02:34 34.26449 -119.93537 30047 ft 406 kts 153°
2026-04-21 02:34 34.24075 -119.91659 29611 ft 408 kts 153°
2026-04-21 02:34 34.21688 -119.89781 29202 ft 410 kts 153°
2026-04-21 02:35 34.19287 -119.87886 28785 ft 416 kts 153°
2026-04-21 02:35 34.16841 -119.85949 28366 ft 422 kts 152°
2026-04-21 02:35 34.14400 -119.84017 27944 ft 416 kts 152°
2026-04-21 02:35 34.11972 -119.82099 27496 ft 418 kts 152°
2026-04-21 02:36 34.09533 -119.80180 27073 ft 420 kts 152°
2026-04-21 02:36 34.07332 -119.77816 26642 ft 429 kts 136°
2026-04-21 02:36 34.05634 -119.74870 26221 ft 426 kts 127°
2026-04-21 02:36 34.04431 -119.72468 25883 ft 421 kts 126°
2026-04-21 02:37 34.03106 -119.69754 25511 ft 416 kts 126°
2026-04-21 02:37 34.01629 -119.66778 25081 ft 410 kts 127°
2026-04-21 02:37 34.00155 -119.63865 24680 ft 405 kts 127°
2026-04-21 02:37 33.98693 -119.60974 24274 ft 402 kts 127°
2026-04-21 02:38 33.97251 -119.58098 23870 ft 399 kts 126°
2026-04-21 02:38 33.95848 -119.55290 23449 ft 396 kts 127°
2026-04-21 02:38 33.94421 -119.52459 23038 ft 392 kts 127°
2026-04-21 02:38 33.93015 -119.49668 22643 ft 388 kts 127°
2026-04-21 02:39 33.91621 -119.46907 22252 ft 384 kts 127°
2026-04-21 02:39 33.90240 -119.44162 21865 ft 381 kts 127°
2026-04-21 02:39 33.88872 -119.41445 21479 ft 379 kts 126°
2026-04-21 02:39 33.87554 -119.38712 21102 ft 377 kts 126°
2026-04-21 02:40 33.86242 -119.35996 20728 ft 374 kts 126°
2026-04-21 02:40 33.84925 -119.33302 20361 ft 372 kts 126°
2026-04-21 02:40 33.83609 -119.30636 19978 ft 370 kts 126°
2026-04-21 02:40 33.82304 -119.27970 19607 ft 369 kts 126°
2026-04-21 02:41 33.81007 -119.25319 19236 ft 367 kts 126°
2026-04-21 02:41 33.79711 -119.22678 18867 ft 365 kts 126°
2026-04-21 02:41 33.78422 -119.20051 18503 ft 364 kts 126°
2026-04-21 02:41 33.77134 -119.17437 18111 ft 362 kts 126°
2026-04-21 02:42 33.75859 -119.14836 17736 ft 360 kts 126°
2026-04-21 02:42 33.74586 -119.12255 17376 ft 358 kts 126°
2026-04-21 02:42 33.73327 -119.09691 17044 ft 355 kts 126°
2026-04-21 02:42 33.72064 -119.07137 16635 ft 355 kts 126°
2026-04-21 02:43 33.70809 -119.04588 16269 ft 354 kts 126°
2026-04-21 02:43 33.69550 -119.02056 15911 ft 353 kts 126°
2026-04-21 02:43 33.68293 -118.99575 15565 ft 352 kts 126°
2026-04-21 02:43 33.67027 -118.97057 15210 ft 352 kts 126°
2026-04-21 02:44 33.65763 -118.94542 14855 ft 351 kts 126°
2026-04-21 02:44 33.64505 -118.92030 14505 ft 351 kts 126°
2026-04-21 02:44 33.63238 -118.89518 14150 ft 351 kts 126°
2026-04-21 02:44 33.61975 -118.87010 13789 ft 351 kts 126°
2026-04-21 02:45 33.60713 -118.84505 13418 ft 350 kts 125°
2026-04-21 02:45 33.59456 -118.82011 13065 ft 349 kts 126°
2026-04-21 02:45 33.58200 -118.79520 12713 ft 348 kts 125°
2026-04-21 02:45 33.57121 -118.76967 12358 ft 353 kts 111°
2026-04-21 02:46 33.56629 -118.74073 12015 ft 351 kts 105°
2026-04-21 02:46 33.56171 -118.71338 11681 ft 319 kts 105°
2026-04-21 02:46 33.55778 -118.68803 11366 ft 303 kts 105°
2026-04-21 02:46 33.55380 -118.66349 11069 ft 296 kts 105°
2026-04-21 02:47 33.54990 -118.63945 10775 ft 291 kts 105°
2026-04-21 02:47 33.54603 -118.61569 10484 ft 290 kts 105°
2026-04-21 02:47 33.54217 -118.59187 10195 ft 291 kts 105°
2026-04-21 02:47 33.53832 -118.56804 9900 ft 292 kts 104°
2026-04-21 02:48 33.53443 -118.54416 9592 ft 291 kts 105°
2026-04-21 02:48 33.53059 -118.52033 9292 ft 291 kts 104°
2026-04-21 02:48 33.52668 -118.49656 9000 ft 290 kts 104°
2026-04-21 02:48 33.52290 -118.47309 8714 ft 290 kts 104°
2026-04-21 02:49 33.52114 -118.44894 8422 ft 292 kts 93°
2026-04-21 02:49 33.52075 -118.42459 8131 ft 292 kts 95°
2026-04-21 02:49 33.52003 -118.40032 7836 ft 292 kts 95°
2026-04-21 02:49 33.51934 -118.37605 7545 ft 291 kts 94°
2026-04-21 02:50 33.51875 -118.35192 7253 ft 288 kts 94°
2026-04-21 02:50 33.51963 -118.32806 6956 ft 289 kts 78°
2026-04-21 02:50 33.52688 -118.30589 6675 ft 276 kts 70°
2026-04-21 02:50 33.53324 -118.28504 6404 ft 256 kts 71°
2026-04-21 02:51 33.53946 -118.26571 6133 ft 241 kts 71°
2026-04-21 02:51 33.54533 -118.24748 5892 ft 228 kts 70°
2026-04-21 02:51 33.55090 -118.23002 5664 ft 225 kts 71°
2026-04-21 02:51 33.55646 -118.21261 5435 ft 226 kts 70°
2026-04-21 02:52 33.56206 -118.19507 5217 ft 225 kts 70°
2026-04-21 02:52 33.56784 -118.17776 5020 ft 221 kts 65°
2026-04-21 02:52 33.57615 -118.16267 4981 ft 213 kts 56°
2026-04-21 02:52 33.58422 -118.14813 4962 ft 210 kts 57°
2026-04-21 02:53 33.59241 -118.13336 4959 ft 218 kts 57°
2026-04-21 02:53 33.60106 -118.11784 4959 ft 229 kts 57°
2026-04-21 02:53 33.61006 -118.10168 4966 ft 236 kts 57°
2026-04-21 02:53 33.61919 -118.08531 4969 ft 235 kts 57°
2026-04-21 02:54 33.62819 -118.06916 4972 ft 231 kts 57°
2026-04-21 02:54 33.63708 -118.05319 4968 ft 229 kts 57°
2026-04-21 02:54 33.64587 -118.03738 4964 ft 226 kts 57°
2026-04-21 02:54 33.65458 -118.02169 5000 ft 225 kts 57°
2026-04-21 02:55 33.66324 -118.00612 4999 ft 223 kts 57°
2026-04-21 02:55 33.67184 -117.99065 4999 ft 222 kts 57°
2026-04-21 02:55 33.68041 -117.97518 4998 ft 222 kts 57°
2026-04-21 02:55 33.68898 -117.95977 4991 ft 221 kts 57°
2026-04-21 02:56 33.69906 -117.94607 4991 ft 221 kts 31°
2026-04-21 02:56 33.72731 -117.93133 4594 ft 228 kts 21°
2026-04-21 02:56 33.74204 -117.92427 4221 ft 226 kts 21°
2026-04-21 02:57 33.75656 -117.91734 3850 ft 222 kts 21°
2026-04-21 02:57 33.77075 -117.91059 3482 ft 218 kts 21°
2026-04-21 02:57 33.78473 -117.90395 3121 ft 214 kts 21°
2026-04-21 02:57 33.79813 -117.89753 3005 ft 199 kts 21°
2026-04-21 02:58 33.81055 -117.89159 2975 ft 186 kts 21°
2026-04-21 02:58 33.82237 -117.88590 2966 ft 182 kts 21°
2026-04-21 02:58 33.83410 -117.88027 2977 ft 181 kts 21°
2026-04-21 02:58 33.84582 -117.87462 2969 ft 181 kts 21°
2026-04-21 02:59 33.85748 -117.86897 2973 ft 181 kts 21°
2026-04-21 02:59 33.86913 -117.86334 2969 ft 180 kts 21°
2026-04-21 02:59 33.88062 -117.85775 2972 ft 180 kts 21°
2026-04-21 02:59 33.89222 -117.85211 2969 ft 180 kts 21°
2026-04-21 03:00 33.90344 -117.84554 2968 ft 182 kts 42°
2026-04-21 03:00 33.90779 -117.83155 2977 ft 188 kts 96°
2026-04-21 03:00 33.90417 -117.81628 2986 ft 190 kts 110°
2026-04-21 03:00 33.89978 -117.80145 2987 ft 186 kts 111°
2026-04-21 03:01 33.89305 -117.78868 2988 ft 181 kts 148°
2026-04-21 03:01 33.88111 -117.78568 2984 ft 176 kts 180°
2026-04-21 03:01 33.86897 -117.78542 2988 ft 173 kts 181°
2026-04-21 03:01 33.85702 -117.78549 2999 ft 166 kts 181°
2026-04-21 03:02 33.84584 -117.78555 2996 ft 156 kts 181°
2026-04-21 03:02 33.83524 -117.78559 2987 ft 153 kts 181°
2026-04-21 03:02 33.82460 -117.78563 2999 ft 152 kts 181°
2026-04-21 03:02 33.81414 -117.78708 2922 ft 152 kts 189°
2026-04-21 03:03 33.80387 -117.78883 2740 ft 146 kts 193°
2026-04-21 03:03 33.79470 -117.79377 2548 ft 143 kts 205°
2026-04-21 03:03 33.78569 -117.79891 2358 ft 143 kts 208°
2026-04-21 03:03 33.77696 -117.80447 2167 ft 141 kts 208°
2026-04-21 03:04 33.76830 -117.80998 1991 ft 142 kts 208°
2026-04-21 03:04 33.76568 -117.81163 1926 ft 143 kts 209°
2026-04-21 03:04 33.75684 -117.81726 1742 ft 144 kts 210°
2026-04-21 03:04 33.74809 -117.82280 1557 ft 135 kts 209°
2026-04-21 03:05 33.74055 -117.82760 1372 ft 116 kts 208°
2026-04-21 03:05 33.73366 -117.83197 1212 ft 109 kts 209°
2026-04-21 03:05 33.72678 -117.83633 1072 ft 115 kts 209°
2026-04-21 03:05 33.71977 -117.84082 926 ft 116 kts 209°
2026-04-21 03:06 33.71257 -117.84536 774 ft 118 kts 210°
2026-04-21 03:06 33.70532 -117.85000 623 ft 117 kts 209°
2026-04-21 03:06 33.69824 -117.85453 462 ft 115 kts 211°
2026-04-21 03:06 33.69132 -117.85910 309 ft 112 kts 209°
2026-04-21 03:07 33.68447 -117.86331 164 ft 110 kts 210°
2026-04-21 03:07 33.67809 -117.86737 51 ft 91 kts 209°
2026-04-21 03:07 33.67486 -117.86943 55 ft 57 kts 206°
2026-04-21 03:07 33.67210 -117.87111 52 ft 37 kts 207°
2026-04-21 03:08 33.67043 -117.87217 57 ft 19 kts 199°
2026-04-21 03:08 33.66938 -117.87189 57 ft 14 kts 137°
2026-04-21 03:08 33.66921 -117.87169 58 ft 0 kts 139°
2026-04-21 03:09 33.66909 -117.87138 55 ft 11 kts 99°
2026-04-21 03:09 33.66956 -117.87050 54 ft 16 kts 41°